RADUGA-1M 3

Last updated on Jan. 26, 2020, 4:40 a.m. UTC

1 39375U 13062A   20025.85039878  .00000148  00000-0  10000-3 0  9993
2 39375   0.0966 103.5520 0003325 226.0261 136.5429  1.00280959 22725
UTC
Height (km)
Latitude
Longitude
Inclination
Orbital Period
UTC large
Height (km)
Speed (km/s)
/
Latitude / Longitude
Inclination (degrees)
Orbital Period (minutes)
Azimuth
Elevation
Range (km)
Doppler Factor
iOS Compass Heading
iOS Angle

Next 30 passes for location: Hong Kong

Rise time Rise Azimuth (degrees) Set time Set Azimuth (degrees) Duration Max altitude (degrees)

No matching passes for this satellites